Date String (YYYY-MM-DD hh:mm:ss) UTC,Instrument flags,Ambient pressure (hPa),Sample flow (lpm),Bypass flow (lpm),Sample temperature (°C),Ambient temperature (°C),ASC tube jacket temperature (°C),LED temperature (°C),Box temperature (°C),Sample RH (%),Span deviation,Mass concentration (μg/m³),Mass concentration (μg/m³),Mass concentration (μg/m³)
DateTimeUTC,F1_M11,P_M11,Q1_M11,Q2_M11,T1_M11,T2_M11,T3_M11,T4_M11,T5_M11,U1_M11,ZSPAN_M11,X0_M11,X2_M11,X1_M11
2022-11-05 17:00:00,,0810.8,5.02,0.00,22.0,20.3,00.0,31.0,23.7,14.1,0000.0,0009.12,0000.44,0000.09
2022-11-05 17:01:00,,0810.7,5.00,0.00,22.0,20.3,00.0,31.0,23.7,14.0,0000.0,0009.21,0000.43,0000.09
2022-11-05 17:02:00,,0810.4,4.99,0.00,22.0,20.2,00.0,31.0,23.7,14.1,0000.0,0008.73,0000.37,0000.08
2022-11-05 17:03:00,,0810.4,5.01,0.00,21.9,20.2,00.0,31.0,23.6,14.3,0000.0,0009.16,0000.40,0000.08
2022-11-05 17:04:00,,0810.8,5.01,0.00,21.9,20.3,00.0,31.0,23.7,14.3,0000.0,0009.41,0000.42,0000.08
2022-11-05 17:05:00,,0810.9,5.00,0.00,22.0,21.2,00.0,30.9,23.9,14.2,0000.0,0009.42,0000.43,0000.08
2022-11-05 17:06:00,,0810.7,5.00,0.00,22.1,22.2,00.0,30.9,24.2,13.9,0000.0,0004.95,0000.35,0000.07
2022-11-05 17:07:00,,0810.8,5.00,0.00,22.2,22.3,00.0,31.0,24.3,13.9,0000.0,0003.72,0000.31,0000.07
2022-11-05 17:08:00,,0810.6,5.00,0.00,22.3,22.0,00.0,31.0,24.3,14.0,0000.0,0003.72,0000.32,0000.07
2022-11-05 17:09:00,,0810.9,4.99,0.00,22.3,21.8,00.0,31.0,24.2,13.9,0000.0,0003.73,0000.32,0000.07
2022-11-05 17:10:00,,0810.6,5.00,0.00,22.3,21.6,00.0,31.0,24.2,14.0,0000.0,0003.81,0000.33,0000.07
2022-11-05 17:11:00,,0810.8,5.01,0.00,22.3,21.4,00.0,31.0,24.2,14.0,0000.0,0003.98,0000.35,0000.07
2022-11-05 17:12:00,,0810.9,5.00,0.00,22.3,21.2,00.0,31.0,24.2,14.1,0000.0,0003.96,0000.40,0000.07
2022-11-05 17:13:00,,0810.8,4.98,0.00,22.3,21.1,00.0,31.0,24.1,14.2,0000.0,0003.60,0000.44,0000.07
2022-11-05 17:14:00,,0810.9,5.02,0.00,22.3,21.0,00.0,31.0,24.1,14.1,0000.0,0002.57,0000.42,0000.07
2022-11-05 17:15:00,,0811.0,4.99,0.00,22.3,20.9,00.0,31.0,24.1,14.0,0000.0,0001.95,0000.37,0000.07
2022-11-05 17:16:00,,0810.9,4.99,0.00,22.2,20.8,00.0,31.1,24.0,14.2,0000.0,0001.91,0000.33,0000.07
2022-11-05 17:17:00,,0810.7,5.01,0.00,22.2,20.8,00.0,31.1,24.0,14.2,0000.0,0001.98,0000.34,0000.06
2022-11-05 17:18:00,,0810.9,5.00,0.00,22.2,20.7,00.0,31.0,24.0,13.9,0000.0,0002.91,0000.35,0000.06
2022-11-05 17:19:00,,0810.7,4.99,0.00,22.2,20.7,00.0,31.0,24.0,13.8,0000.0,0002.92,0000.35,0000.06
2022-11-05 17:20:00,,0810.9,5.00,0.00,22.2,20.6,00.0,31.0,24.0,14.1,0000.0,0003.04,0000.41,0000.06
2022-11-05 17:21:00,,0810.7,5.00,0.00,22.2,20.6,00.0,31.0,23.9,14.3,0000.0,0003.62,0000.43,0000.06
2022-11-05 17:22:00,,0810.7,5.01,0.00,22.1,20.6,00.0,31.0,23.9,14.1,0000.0,0004.17,0000.41,0000.06
2022-11-05 17:23:00,,0810.6,5.00,0.00,22.1,20.5,00.0,31.0,23.9,14.2,0000.0,0004.98,0000.36,0000.05
2022-11-05 17:24:00,,0810.9,5.00,0.00,22.1,20.5,00.0,31.0,23.9,14.1,0000.0,0006.59,0000.33,0000.05
2022-11-05 17:25:00,,0810.8,4.99,0.00,22.1,20.5,00.0,31.0,23.9,13.9,0000.0,0006.87,0000.31,0000.05
2022-11-05 17:26:00,,0810.7,4.99,0.00,22.1,20.5,00.0,31.0,23.9,13.8,0000.0,0006.89,0000.30,0000.05
2022-11-05 17:27:00,,0810.4,5.00,0.00,22.1,20.5,00.0,31.0,23.9,13.9,0000.0,0006.89,0000.30,0000.04
2022-11-05 17:28:00,,0810.6,5.00,0.00,22.1,20.4,00.0,31.0,23.9,14.3,0000.0,0007.54,0000.30,0000.04
2022-11-05 17:29:00,,0810.9,5.01,0.00,22.0,20.4,00.0,30.9,23.9,14.1,0000.0,0007.01,0000.32,0000.05
2022-11-05 17:30:00,,0810.8,5.00,0.00,22.0,20.4,00.0,30.9,23.8,14.0,0000.0,0006.96,0000.30,0000.05
2022-11-05 17:31:00,,0810.6,4.99,0.00,22.0,20.4,00.0,30.9,23.8,14.2,0000.0,0006.87,0000.26,0000.05
2022-11-05 17:32:00,,0810.6,4.99,0.00,22.0,20.3,00.0,30.9,23.8,14.3,0000.0,0006.19,0000.23,0000.04
2022-11-05 17:33:00,,0810.9,5.00,0.00,22.0,20.4,00.0,30.9,23.8,14.2,0000.0,0005.50,0000.23,0000.05
2022-11-05 17:34:00,,0810.8,5.01,0.00,22.0,20.3,00.0,30.9,23.8,14.7,0000.0,0004.38,0000.22,0000.05
2022-11-05 17:35:00,,0810.8,5.01,0.00,22.0,20.3,00.0,30.9,23.7,14.6,0000.0,0002.72,0000.23,0000.05
2022-11-05 17:36:00,,0810.9,5.00,0.00,22.0,20.3,00.0,30.9,23.7,14.5,0000.0,0002.46,0000.22,0000.05
2022-11-05 17:37:00,,0811.0,4.99,0.00,21.9,20.3,00.0,30.9,23.7,14.1,0000.0,0002.45,0000.24,0000.04
2022-11-05 17:38:00,,0811.0,4.99,0.00,21.9,20.4,00.0,30.9,23.7,13.9,0000.0,0002.94,0000.23,0000.05
2022-11-05 17:39:00,,0811.0,5.00,0.00,21.9,20.4,00.0,30.9,23.7,14.1,0000.0,0003.41,0000.23,0000.05
2022-11-05 17:40:00,,0810.9,5.00,0.00,21.9,20.5,00.0,30.8,23.7,14.3,0000.0,0002.96,0000.20,0000.05
2022-11-05 17:41:00,,0811.0,5.01,0.00,21.9,20.5,00.0,30.8,23.7,13.9,0000.0,0002.95,0000.19,0000.05
2022-11-05 17:42:00,,0810.9,5.00,0.00,21.9,20.5,00.0,30.8,23.7,14.1,0000.0,0002.86,0000.17,0000.05
2022-11-05 17:43:00,,0811.0,5.00,0.00,21.9,20.5,00.0,30.8,23.7,14.3,0000.0,0002.81,0000.16,0000.05
2022-11-05 17:44:00,,0811.0,4.99,0.00,21.9,20.6,00.0,30.8,23.8,13.9,0000.0,0002.80,0000.16,0000.05
2022-11-05 17:45:00,,0811.0,4.99,0.00,21.9,20.6,00.0,30.8,23.8,13.8,0000.0,0002.79,0000.17,0000.05
2022-11-05 17:46:00,,0810.9,5.00,0.00,21.9,20.6,00.0,30.8,23.8,14.4,0000.0,0002.73,0000.15,0000.05
2022-11-05 17:47:00,,0810.9,5.00,0.00,22.0,20.6,00.0,30.8,23.8,14.5,0000.0,0002.68,0000.15,0000.05
2022-11-05 17:48:00,,0811.0,5.00,0.00,22.0,20.6,00.0,30.8,23.8,14.5,0000.0,0003.79,0000.14,0000.06
2022-11-05 17:49:00,,0811.1,5.00,0.00,22.0,20.7,00.0,30.8,23.8,13.9,0000.0,0003.93,0000.13,0000.05
2022-11-05 17:50:00,,0810.9,5.00,0.00,22.0,20.7,00.0,30.8,23.8,14.1,0000.0,0001.85,0000.12,0000.05
2022-11-05 17:51:00,,0810.9,5.00,0.00,22.0,20.7,00.0,30.8,23.8,14.0,0000.0,0001.92,0000.13,0000.05
2022-11-05 17:52:00,,0810.7,5.00,0.00,22.0,20.7,00.0,30.8,23.8,14.2,0000.0,0002.46,0000.14,0000.06
2022-11-05 17:53:00,,0810.7,5.00,0.00,22.0,20.7,00.0,30.8,23.8,14.4,0000.0,0002.50,0000.15,0000.06
2022-11-05 17:54:00,,0810.9,5.00,0.00,22.0,20.7,00.0,30.8,23.8,14.4,0000.0,0003.07,0000.15,0000.06
2022-11-05 17:55:00,,0810.8,5.00,0.00,22.0,20.7,00.0,30.8,23.9,14.3,0000.0,0003.39,0000.15,0000.06
2022-11-05 17:56:00,,0810.6,4.98,0.00,22.0,20.7,00.0,30.9,23.9,14.5,0000.0,0004.19,0000.15,0000.06
2022-11-05 17:57:00,,0810.6,5.00,0.00,22.0,20.7,00.0,30.9,23.9,14.5,0000.0,0004.27,0000.18,0000.06
2022-11-05 17:58:00,,0810.6,5.00,0.00,22.0,20.7,00.0,30.9,23.9,14.5,0000.0,0004.38,0000.20,0000.06
2022-11-05 17:59:00,,0810.7,5.02,0.00,22.0,20.7,00.0,30.9,23.9,14.1,0000.0,0003.52,0000.22,0000.06
